CFG063 KLAS-EDDF

Flight info

Callsign CFG063
Flight time N/A
Altitude 33000
Route GIDGT2 VERKN DCT PROMT Q88 ZAKRY/N0475F350 DCT SNY DCT ONL DCT KP84G DCT KP90K DCT SSM DCT MT/N0483F370 DCT PEKRO DCT HOIST/M082F370 DCT 56N050W 57N040W 57N030W 56N020W DCT ETARI/N0477F370 DCT MOGLO DCT NIBOG DCT BELOX/N0472F390 L603 DOLAS DCT NAVPI DCT SOGPO DCT DIXAT DIXAT1C
Aircraft A339/H-SADE1E2E3GHIJ3J5M1P2RWXY/LB2D1

Departure

Time 2026-05-07 22:35
Airport Harry Reid International Airport (KLAS)

Arrival

Time N/A
Airport Frankfurt Main Airport (EDDF)
Time Latitude Longitude Altitude Speed Heading
2026-05-07 22:02 36.08535 -115.13367 2073 ft 0 kts
2026-05-07 22:19 36.08531 -115.13367 2074 ft 2 kts
2026-05-07 22:19 36.08516 -115.13367 2074 ft 2 kts
2026-05-07 22:19 36.08501 -115.13367 2074 ft 2 kts
2026-05-07 22:19 36.08486 -115.13371 2074 ft 2 kts 20°
2026-05-07 22:20 36.08472 -115.13378 2074 ft 2 kts 35°
2026-05-07 22:20 36.08461 -115.13390 2075 ft 2 kts 49°
2026-05-07 22:20 36.08452 -115.13405 2075 ft 2 kts 59°
2026-05-07 22:20 36.08445 -115.13421 2076 ft 2 kts 71°
2026-05-07 22:21 36.08441 -115.13438 2076 ft 2 kts 82°
2026-05-07 22:21 36.08441 -115.13457 2077 ft 2 kts 92°
2026-05-07 22:21 36.08441 -115.13476 2077 ft 2 kts 91°
2026-05-07 22:21 36.08441 -115.13494 2077 ft 2 kts 90°
2026-05-07 22:22 36.08442 -115.13512 2078 ft 2 kts 91°
2026-05-07 22:22 36.08442 -115.13532 2078 ft 2 kts 91°
2026-05-07 22:22 36.08442 -115.13541 2079 ft 0 kts 91°
2026-05-07 22:22 36.08441 -115.13509 2078 ft 6 kts 96°
2026-05-07 22:23 36.08425 -115.13460 2077 ft 5 kts 124°
2026-05-07 22:23 36.08412 -115.13442 2077 ft 0 kts 137°
2026-05-07 22:23 36.08410 -115.13439 2077 ft 0 kts 137°
2026-05-07 22:28 36.08409 -115.13438 2077 ft 1 kts 138°
2026-05-07 22:28 36.08394 -115.13422 2077 ft 4 kts 139°
2026-05-07 22:28 36.08358 -115.13382 2077 ft 8 kts 136°
2026-05-07 22:28 36.08306 -115.13316 2076 ft 11 kts 142°
2026-05-07 22:29 36.08231 -115.13295 2077 ft 10 kts 184°
2026-05-07 22:29 36.08162 -115.13294 2079 ft 9 kts 178°
2026-05-07 22:29 36.08099 -115.13291 2080 ft 8 kts 178°
2026-05-07 22:29 36.08042 -115.13290 2081 ft 7 kts 181°
2026-05-07 22:30 36.07990 -115.13292 2082 ft 7 kts 181°
2026-05-07 22:30 36.07941 -115.13292 2083 ft 7 kts 180°
2026-05-07 22:30 36.07889 -115.13293 2084 ft 7 kts 180°
2026-05-07 22:30 36.07841 -115.13274 2085 ft 7 kts 134°
2026-05-07 22:31 36.07827 -115.13200 2083 ft 10 kts 91°
2026-05-07 22:31 36.07826 -115.13092 2080 ft 14 kts 92°
2026-05-07 22:31 36.07821 -115.12953 2076 ft 17 kts 88°
2026-05-07 22:31 36.07827 -115.12797 2073 ft 18 kts 88°
2026-05-07 22:32 36.07826 -115.12634 2070 ft 19 kts 90°
2026-05-07 22:32 36.07828 -115.12466 2067 ft 19 kts 90°
2026-05-07 22:32 36.07825 -115.12307 2064 ft 16 kts 98°
2026-05-07 22:32 36.07783 -115.12202 2062 ft 9 kts 128°
2026-05-07 22:33 36.07750 -115.12155 2062 ft 1 kts 135°
2026-05-07 22:33 36.07747 -115.12152 2062 ft 0 kts 137°
2026-05-07 22:33 36.07741 -115.12146 2063 ft 3 kts 146°
2026-05-07 22:33 36.07700 -115.12129 2063 ft 8 kts 167°
2026-05-07 22:34 36.07652 -115.12148 2064 ft 7 kts 238°
2026-05-07 22:34 36.07643 -115.12270 2066 ft 36 kts 270°
2026-05-07 22:34 36.07644 -115.12839 2077 ft 95 kts 269°
2026-05-07 22:34 36.07642 -115.13869 2104 ft 145 kts 270°
2026-05-07 22:35 36.07639 -115.15305 2161 ft 185 kts 271°
2026-05-07 22:35 36.07647 -115.16942 2588 ft 192 kts 271°
2026-05-07 22:35 36.07658 -115.18594 3136 ft 195 kts 272°
2026-05-07 22:35 36.07677 -115.20283 3693 ft 200 kts 272°
2026-05-07 22:36 36.07701 -115.21995 4199 ft 207 kts 272°
2026-05-07 22:36 36.07731 -115.23840 4657 ft 219 kts 272°
2026-05-07 22:36 36.07762 -115.25726 5111 ft 221 kts 272°
2026-05-07 22:36 36.08115 -115.27557 5363 ft 227 kts 306°
2026-05-07 22:37 36.09310 -115.28867 5621 ft 234 kts 338°
2026-05-07 22:37 36.10903 -115.29348 5897 ft 242 kts 350°
2026-05-07 22:37 36.12585 -115.29676 6153 ft 251 kts 351°
2026-05-07 22:37 36.14379 -115.29798 6383 ft 262 kts 12°
2026-05-07 22:38 36.16023 -115.28795 6598 ft 274 kts 44°
2026-05-07 22:38 36.17036 -115.26775 6860 ft 284 kts 69°
2026-05-07 22:38 36.17729 -115.24438 7109 ft 294 kts 69°
2026-05-07 22:38 36.18404 -115.22021 7394 ft 302 kts 70°
2026-05-07 22:39 36.19122 -115.19535 7768 ft 307 kts 68°
2026-05-07 22:39 36.19881 -115.17047 8180 ft 311 kts 74°
2026-05-07 22:39 36.20058 -115.14373 8644 ft 314 kts 90°
2026-05-07 22:39 36.19962 -115.11678 9190 ft 313 kts 92°
2026-05-07 22:40 36.19858 -115.09016 9733 ft 311 kts 90°
2026-05-07 22:40 36.19810 -115.06377 10286 ft 310 kts 89°
2026-05-07 22:40 36.19794 -115.03683 10709 ft 314 kts 89°
2026-05-07 22:40 36.19739 -115.00938 10925 ft 327 kts 89°
2026-05-07 22:41 36.19687 -114.98063 11144 ft 339 kts 89°
2026-05-07 22:41 36.19652 -114.95106 11362 ft 352 kts 88°
2026-05-07 22:41 36.19632 -114.92042 11579 ft 364 kts 88°
2026-05-07 22:41 36.19620 -114.88878 11797 ft 376 kts 88°
2026-05-07 22:42 36.19613 -114.85571 12031 ft 388 kts 88°
2026-05-07 22:42 36.19605 -114.82214 12482 ft 393 kts 88°
2026-05-07 22:42 36.19597 -114.78841 13063 ft 394 kts 88°
2026-05-07 22:42 36.19590 -114.75462 13640 ft 396 kts 88°
2026-05-07 22:43 36.19580 -114.72055 14204 ft 398 kts 87°
2026-05-07 22:43 36.19571 -114.68632 14740 ft 400 kts 87°
2026-05-07 22:43 36.19564 -114.65204 15275 ft 402 kts 87°
2026-05-07 22:43 36.19554 -114.61711 15792 ft 405 kts 87°
2026-05-07 22:44 36.19546 -114.58247 16301 ft 408 kts 87°
2026-05-07 22:44 36.19537 -114.54701 16830 ft 411 kts 87°
2026-05-07 22:44 36.19527 -114.51208 17349 ft 413 kts 87°
2026-05-07 22:44 36.19515 -114.47616 17862 ft 415 kts 87°
2026-05-07 22:45 36.19504 -114.44061 18361 ft 418 kts 87°
2026-05-07 22:45 36.19490 -114.40462 18853 ft 421 kts 87°
2026-05-07 22:45 36.19474 -114.36845 19343 ft 423 kts 87°
2026-05-07 22:45 36.19457 -114.33215 19823 ft 425 kts 88°
2026-05-07 22:46 36.19439 -114.29542 20277 ft 428 kts 87°
2026-05-07 22:46 36.19623 -114.25915 20704 ft 427 kts 78°
2026-05-07 22:46 36.20278 -114.22358 21153 ft 425 kts 70°
2026-05-07 22:46 36.21359 -114.18977 21584 ft 424 kts 63°
2026-05-07 22:47 36.22636 -114.15682 21986 ft 427 kts 62°
2026-05-07 22:47 36.23957 -114.12341 22374 ft 430 kts 61°
2026-05-07 22:47 36.25266 -114.09029 22762 ft 432 kts 62°
2026-05-07 22:47 36.26576 -114.05698 23142 ft 434 kts 62°
2026-05-07 22:48 36.27903 -114.02308 23525 ft 437 kts 62°
2026-05-07 22:48 36.29226 -113.98920 23898 ft 439 kts 62°
2026-05-07 22:48 36.30566 -113.95480 24276 ft 441 kts 62°
2026-05-07 22:48 36.31890 -113.92070 24650 ft 443 kts 62°
2026-05-07 22:49 36.33231 -113.88612 25014 ft 444 kts 62°
2026-05-07 22:49 36.34563 -113.85174 25368 ft 445 kts 62°
2026-05-07 22:49 36.35888 -113.81755 25693 ft 447 kts 62°
2026-05-07 22:49 36.37233 -113.78275 26014 ft 449 kts 62°
2026-05-07 22:50 36.38586 -113.74770 26324 ft 450 kts 62°
2026-05-07 22:50 36.39933 -113.71283 26629 ft 452 kts 62°
2026-05-07 22:50 36.41290 -113.67760 26910 ft 454 kts 61°
2026-05-07 22:50 36.42650 -113.64224 27178 ft 456 kts 62°
2026-05-07 22:51 36.44016 -113.60677 27459 ft 458 kts 61°
2026-05-07 22:51 36.45403 -113.57091 27745 ft 459 kts 61°
2026-05-07 22:51 36.46783 -113.53532 28070 ft 459 kts 61°
2026-05-07 22:51 36.48159 -113.49982 28470 ft 458 kts 61°
2026-05-07 22:52 36.49521 -113.46458 28869 ft 456 kts 61°
2026-05-07 22:52 36.50890 -113.42911 29243 ft 454 kts 61°
2026-05-07 22:52 36.52254 -113.39375 29604 ft 453 kts 61°
2026-05-07 22:52 36.53606 -113.35864 29951 ft 452 kts 61°
2026-05-07 22:53 36.54972 -113.32317 30290 ft 452 kts 62°
2026-05-07 22:53 36.56319 -113.28812 30620 ft 451 kts 62°
2026-05-07 22:53 36.57652 -113.25341 30935 ft 450 kts 62°
2026-05-07 22:53 36.59000 -113.21825 31262 ft 449 kts 62°
2026-05-07 22:54 36.60335 -113.18340 31554 ft 449 kts 62°
2026-05-07 22:54 36.61675 -113.14840 31794 ft 449 kts 62°
2026-05-07 22:54 36.63027 -113.11303 32005 ft 450 kts 62°
2026-05-07 22:54 36.64370 -113.07785 32223 ft 451 kts 62°
2026-05-07 22:55 36.65697 -113.04308 32440 ft 452 kts 62°
2026-05-07 22:55 36.67052 -113.00749 32656 ft 453 kts 62°
2026-05-07 22:55 36.68388 -112.97238 32868 ft 453 kts 62°
2026-05-07 22:55 36.69747 -112.93661 33080 ft 454 kts 62°
2026-05-07 22:56 36.71089 -112.90127 33191 ft 456 kts 62°
2026-05-07 22:56 36.73786 -112.83008 33197 ft 456 kts 62°
2026-05-07 22:57 36.76495 -112.75841 33198 ft 455 kts 62°
2026-05-07 22:57 36.79174 -112.68739 33201 ft 455 kts 62°
2026-05-07 22:58 36.81858 -112.61602 33204 ft 455 kts 62°
2026-05-07 22:58 36.84589 -112.54491 33205 ft 454 kts 58°
2026-05-07 22:59 36.88034 -112.47936 33206 ft 452 kts 49°
2026-05-07 22:59 36.92306 -112.42252 33213 ft 452 kts 39°
2026-05-07 23:00 36.97310 -112.37552 33209 ft 450 kts 30°
2026-05-07 23:00 37.02702 -112.33536 33205 ft 450 kts 29°
2026-05-07 23:01 37.08100 -112.29587 33211 ft 451 kts 29°
2026-05-07 23:01 37.13514 -112.25617 33222 ft 450 kts 29°
2026-05-07 23:02 37.18877 -112.21669 33246 ft 451 kts 29°
2026-05-07 23:02 37.24293 -112.17673 33244 ft 450 kts 29°
2026-05-07 23:03 37.29668 -112.13686 33244 ft 450 kts 30°
2026-05-07 23:03 37.34802 -112.09171 33237 ft 452 kts 36°
2026-05-07 23:04 37.39498 -112.03928 33253 ft 454 kts 42°
2026-05-07 23:04 37.43694 -111.98025 33246 ft 455 kts 49°
2026-05-07 23:05 37.47499 -111.91647 33243 ft 454 kts 50°
2026-05-07 23:05 37.51009 -111.85060 33243 ft 455 kts 56°
2026-05-07 23:06 37.54113 -111.78102 33258 ft 457 kts 57°
2026-05-07 23:06 37.57162 -111.71102 33267 ft 458 kts 57°
2026-05-07 23:07 37.60210 -111.64095 33261 ft 459 kts 57°
2026-05-07 23:07 37.63264 -111.57069 33248 ft 458 kts 57°
2026-05-07 23:08 37.66318 -111.50025 33254 ft 460 kts 57°
2026-05-07 23:08 37.69374 -111.42963 33252 ft 460 kts 57°
2026-05-07 23:09 37.72432 -111.35880 33241 ft 460 kts 57°
2026-05-07 23:09 37.75486 -111.28799 33233 ft 461 kts 58°
2026-05-07 23:10 37.78531 -111.21719 33222 ft 461 kts 58°
2026-05-07 23:10 37.81602 -111.14562 33214 ft 463 kts 58°
2026-05-07 23:11 37.84647 -111.07448 33213 ft 462 kts 58°
2026-05-07 23:11 37.87693 -111.00314 33214 ft 463 kts 58°
2026-05-07 23:12 37.90743 -110.93156 33216 ft 463 kts 58°
2026-05-07 23:12 37.93797 -110.85976 33218 ft 465 kts 58°
2026-05-07 23:13 37.96852 -110.78773 33225 ft 466 kts 58°
2026-05-07 23:13 37.99897 -110.71575 33233 ft 466 kts 57°
2026-05-07 23:14 38.02947 -110.64356 33227 ft 465 kts 57°
2026-05-07 23:14 38.05976 -110.57168 33210 ft 465 kts 57°
2026-05-07 23:15 38.09013 -110.49946 33197 ft 466 kts 57°
2026-05-07 23:15 38.12059 -110.42683 33193 ft 467 kts 57°
2026-05-07 23:16 38.15099 -110.35416 33199 ft 468 kts 57°
2026-05-07 23:16 38.18153 -110.28095 33209 ft 468 kts 58°
2026-05-07 23:17 38.21199 -110.20786 33218 ft 469 kts 58°
2026-05-07 23:17 38.24245 -110.13454 33216 ft 470 kts 58°
2026-05-07 23:18 38.27287 -110.06110 33209 ft 470 kts 58°
2026-05-07 23:18 38.30295 -109.98749 33193 ft 471 kts 58°
2026-05-07 23:19 38.33268 -109.91335 33179 ft 471 kts 58°
2026-05-07 23:19 38.36227 -109.83942 33170 ft 472 kts 58°
2026-05-07 23:20 38.39200 -109.76507 33169 ft 472 kts 58°
2026-05-07 23:20 38.42176 -109.69049 33174 ft 472 kts 58°
2026-05-07 23:21 38.45130 -109.61632 33184 ft 471 kts 58°
2026-05-07 23:21 38.48091 -109.54176 33189 ft 472 kts 58°
2026-05-07 23:22 38.51054 -109.46703 33197 ft 472 kts 58°
2026-05-07 23:22 38.53984 -109.39284 33216 ft 472 kts 58°
2026-05-07 23:23 38.56940 -109.31786 33229 ft 473 kts 58°
2026-05-07 23:23 38.59893 -109.24280 33237 ft 474 kts 58°
2026-05-07 23:24 38.62849 -109.16745 33233 ft 475 kts 58°
2026-05-07 23:24 38.65780 -109.09255 33213 ft 475 kts 58°
2026-05-07 23:25 38.68744 -109.01658 33194 ft 476 kts 58°
2026-05-07 23:25 38.71677 -108.94128 33186 ft 476 kts 58°
2026-05-07 23:26 38.74613 -108.86574 33192 ft 476 kts 58°
2026-05-07 23:26 38.77567 -108.78948 33210 ft 476 kts 58°
2026-05-07 23:27 38.81952 -108.67598 33221 ft 477 kts 58°
2026-05-07 23:27 38.84887 -108.59982 33219 ft 477 kts 58°
2026-05-07 23:28 38.87805 -108.52380 33219 ft 477 kts 58°
2026-05-07 23:28 38.90722 -108.44820 33217 ft 478 kts 57°
2026-05-07 23:29 38.93663 -108.37236 33215 ft 478 kts 57°
2026-05-07 23:29 38.96624 -108.29584 33219 ft 480 kts 57°
2026-05-07 23:30 38.99585 -108.21906 33248 ft 479 kts 57°
2026-05-07 23:30 39.02529 -108.14245 33268 ft 481 kts 57°
2026-05-07 23:31 39.05461 -108.06598 33275 ft 480 kts 58°
2026-05-07 23:31 39.08419 -107.98862 33282 ft 481 kts 58°
2026-05-07 23:32 39.11351 -107.91172 33283 ft 480 kts 58°
2026-05-07 23:32 39.14286 -107.83456 33292 ft 482 kts 58°
2026-05-07 23:33 39.17207 -107.75760 33303 ft 484 kts 58°
2026-05-07 23:33 39.20145 -107.67992 33309 ft 484 kts 57°
2026-05-07 23:34 39.23073 -107.60231 33318 ft 483 kts 57°
2026-05-07 23:34 39.26013 -107.52424 33321 ft 483 kts 58°
2026-05-07 23:35 39.28938 -107.44637 33339 ft 484 kts 57°
2026-05-07 23:35 39.31855 -107.36842 33329 ft 484 kts 57°
2026-05-07 23:36 39.34758 -107.29073 33338 ft 486 kts 58°
2026-05-07 23:36 39.37684 -107.21259 33336 ft 484 kts 57°
2026-05-07 23:37 39.40906 -107.13645 33328 ft 482 kts 54°
2026-05-07 23:37 39.44194 -107.06096 33313 ft 483 kts 54°
2026-05-07 23:38 39.47469 -106.98553 33309 ft 483 kts 54°
2026-05-07 23:38 39.50738 -106.90991 33300 ft 483 kts 54°
2026-05-07 23:39 39.54000 -106.83424 33277 ft 484 kts 54°
2026-05-07 23:39 39.57264 -106.75832 33280 ft 484 kts 54°
2026-05-07 23:40 39.60532 -106.68211 33283 ft 485 kts 54°
2026-05-07 23:40 39.63784 -106.60608 33282 ft 485 kts 54°
2026-05-07 23:41 39.67049 -106.52956 33274 ft 485 kts 54°
2026-05-07 23:41 39.70298 -106.45328 33270 ft 486 kts 54°
2026-05-07 23:42 39.73563 -106.37635 33254 ft 486 kts 53°
2026-05-07 23:42 39.76813 -106.29965 33243 ft 487 kts 54°
2026-05-07 23:43 39.80060 -106.22278 33236 ft 486 kts 54°
2026-05-07 23:43 39.83302 -106.14587 33232 ft 488 kts 54°
2026-05-07 23:44 39.86548 -106.06866 33216 ft 489 kts 54°
2026-05-07 23:44 39.89785 -105.99143 33198 ft 489 kts 54°
2026-05-07 23:45 39.93035 -105.91374 33190 ft 488 kts 54°
2026-05-07 23:45 39.96244 -105.83682 33200 ft 487 kts 54°
2026-05-07 23:46 39.99486 -105.75885 33208 ft 487 kts 54°
2026-05-07 23:46 40.02703 -105.68141 33186 ft 490 kts 54°
2026-05-07 23:47 40.05932 -105.60351 33173 ft 490 kts 54°
2026-05-07 23:47 40.09159 -105.52530 33142 ft 490 kts 54°
2026-05-07 23:48 40.12363 -105.44742 33149 ft 489 kts 54°
2026-05-07 23:48 40.15599 -105.36875 33139 ft 490 kts 54°
2026-05-07 23:49 40.18802 -105.29054 33092 ft 491 kts 55°
2026-05-07 23:49 40.22028 -105.21166 33068 ft 493 kts 55°
2026-05-07 23:50 40.25238 -105.13284 33057 ft 492 kts 55°
2026-05-07 23:50 40.28439 -105.05411 33050 ft 493 kts 55°
2026-05-07 23:51 40.31627 -104.97543 33031 ft 492 kts 55°
2026-05-07 23:51 40.34822 -104.89645 33025 ft 492 kts 55°
2026-05-07 23:52 40.38023 -104.81714 33015 ft 493 kts 55°
2026-05-07 23:52 40.41213 -104.73781 33019 ft 492 kts 55°
2026-05-07 23:53 40.44375 -104.65894 33022 ft 492 kts 55°
2026-05-07 23:53 40.47559 -104.57943 33016 ft 492 kts 55°
2026-05-07 23:54 40.50718 -104.50029 33009 ft 492 kts 55°
2026-05-07 23:54 40.53865 -104.42118 33028 ft 491 kts 55°
2026-05-07 23:55 40.57026 -104.34160 33017 ft 491 kts 56°
2026-05-07 23:55 40.60180 -104.26195 33019 ft 493 kts 56°
2026-05-07 23:56 40.63308 -104.18269 33019 ft 491 kts 56°
2026-05-07 23:56 40.66446 -104.10304 33020 ft 491 kts 56°
2026-05-07 23:57 40.69578 -104.02331 33015 ft 491 kts 56°
2026-05-07 23:57 40.72697 -103.94365 33005 ft 491 kts 56°
2026-05-07 23:58 40.75841 -103.86314 32996 ft 492 kts 56°
2026-05-07 23:58 40.78961 -103.78309 32988 ft 492 kts 56°
2026-05-07 23:59 40.82068 -103.70311 32988 ft 493 kts 56°
2026-05-07 23:59 40.85173 -103.62296 32987 ft 493 kts 56°
2026-05-08 00:00 40.88295 -103.54218 32978 ft 493 kts 55°
2026-05-08 00:00 40.91378 -103.46218 32977 ft 492 kts 55°
2026-05-08 00:01 40.94480 -103.38144 32967 ft 493 kts 55°
2026-05-08 00:01 40.97574 -103.30071 32956 ft 493 kts 56°
2026-05-08 00:02 41.00657 -103.22008 32948 ft 492 kts 56°
2026-05-08 00:02 41.03727 -103.13951 32950 ft 493 kts 56°
2026-05-08 00:03 41.06793 -103.05888 32936 ft 494 kts 56°
2026-05-08 00:03 41.09850 -102.97759 32929 ft 495 kts 57°
2026-05-08 00:04 41.12732 -102.89477 32933 ft 496 kts 58°
2026-05-08 00:04 41.15570 -102.81194 32927 ft 495 kts 58°
2026-05-08 00:05 41.18411 -102.72895 32931 ft 495 kts 58°
2026-05-08 00:05 41.21237 -102.64628 32928 ft 495 kts 58°
2026-05-08 00:06 41.24078 -102.56291 32932 ft 496 kts 58°
2026-05-08 00:06 41.26902 -102.47977 32925 ft 494 kts 58°
2026-05-08 00:07 41.29709 -102.39693 32924 ft 493 kts 58°
2026-05-08 00:07 41.32505 -102.31422 32908 ft 493 kts 59°
2026-05-08 00:08 41.35299 -102.23133 32910 ft 493 kts 59°
2026-05-08 00:08 41.38097 -102.14800 32887 ft 493 kts 59°
2026-05-08 00:09 41.40865 -102.06531 32902 ft 493 kts 59°
2026-05-08 00:09 41.43644 -101.98209 32901 ft 492 kts 59°
2026-05-08 00:10 41.46413 -101.89893 32895 ft 492 kts 59°
2026-05-08 00:10 41.49181 -101.81556 32887 ft 493 kts 60°
2026-05-08 00:11 41.51939 -101.73224 32897 ft 493 kts 60°
2026-05-08 00:11 41.54687 -101.64889 32911 ft 494 kts 60°
2026-05-08 00:12 41.57432 -101.56534 32903 ft 493 kts 60°
2026-05-08 00:12 41.60178 -101.48166 32894 ft 495 kts 60°
2026-05-08 00:13 41.62922 -101.39770 32907 ft 494 kts 60°
2026-05-08 00:13 41.65663 -101.31357 32907 ft 495 kts 62°
2026-05-08 00:14 41.68391 -101.22961 32907 ft 496 kts 62°
2026-05-08 00:14 41.71124 -101.14520 32928 ft 496 kts 62°
2026-05-08 00:15 41.73855 -101.06057 32904 ft 496 kts 62°
2026-05-08 00:15 41.76583 -100.97578 32908 ft 496 kts 62°
2026-05-08 00:16 41.79293 -100.89132 32914 ft 497 kts 62°
2026-05-08 00:16 41.82004 -100.80653 32923 ft 496 kts 62°
2026-05-08 00:17 41.84705 -100.72185 32895 ft 497 kts 62°
2026-05-08 00:17 41.87405 -100.63682 32892 ft 498 kts 62°
2026-05-08 00:18 41.90109 -100.55145 32897 ft 499 kts 62°
2026-05-08 00:18 41.92808 -100.46596 32897 ft 499 kts 62°
2026-05-08 00:19 41.95504 -100.38030 32900 ft 500 kts 62°
2026-05-08 00:19 41.98202 -100.29437 32896 ft 500 kts 63°
2026-05-08 00:20 42.00876 -100.20888 32895 ft 500 kts 63°
2026-05-08 00:20 42.03571 -100.12241 32899 ft 502 kts 63°
2026-05-08 00:21 42.06250 -100.03615 32897 ft 502 kts 63°
2026-05-08 00:21 42.08919 -99.94998 32897 ft 502 kts 63°
2026-05-08 00:22 42.11580 -99.86382 32896 ft 502 kts 63°
2026-05-08 00:22 42.14246 -99.77715 32889 ft 502 kts 63°
2026-05-08 00:23 42.16904 -99.69049 32885 ft 502 kts 63°
2026-05-08 00:23 42.19552 -99.60386 32882 ft 502 kts 62°
2026-05-08 00:24 42.22208 -99.51662 32880 ft 502 kts 62°
2026-05-08 00:24 42.24841 -99.42995 32876 ft 502 kts 62°
2026-05-08 00:25 42.27461 -99.34342 32874 ft 502 kts 63°
2026-05-08 00:25 42.30098 -99.25603 32873 ft 503 kts 63°
2026-05-08 00:26 42.32719 -99.16880 32872 ft 503 kts 63°
2026-05-08 00:26 42.35327 -99.08177 32871 ft 503 kts 63°
2026-05-08 00:27 42.37938 -98.99438 32868 ft 503 kts 63°
2026-05-08 00:27 42.40543 -98.90681 32871 ft 502 kts 63°
2026-05-08 00:28 42.43141 -98.81920 32877 ft 502 kts 63°
2026-05-08 00:28 42.45725 -98.73183 32884 ft 503 kts 63°
2026-05-08 00:29 42.48489 -98.64562 32887 ft 499 kts 59°
2026-05-08 00:29 42.51480 -98.56119 32880 ft 499 kts 58°
2026-05-08 00:30 42.54475 -98.47685 32875 ft 500 kts 59°
2026-05-08 00:30 42.57455 -98.39240 32863 ft 500 kts 59°
2026-05-08 00:31 42.60441 -98.30746 32860 ft 501 kts 59°
2026-05-08 00:31 42.63426 -98.22218 32863 ft 501 kts 59°
2026-05-08 00:32 42.66404 -98.13685 32866 ft 501 kts 59°
2026-05-08 00:32 42.69365 -98.05169 32860 ft 501 kts 60°
2026-05-08 00:33 42.72323 -97.96638 32860 ft 501 kts 60°
2026-05-08 00:33 42.75281 -97.88084 32866 ft 500 kts 60°
2026-05-08 00:34 42.78210 -97.79582 32873 ft 498 kts 60°
2026-05-08 00:34 42.81148 -97.71031 32873 ft 499 kts 60°
2026-05-08 00:35 42.84056 -97.62540 32875 ft 498 kts 60°
2026-05-08 00:35 42.86970 -97.54010 32874 ft 498 kts 60°
2026-05-08 00:36 42.89890 -97.45436 32877 ft 499 kts 60°
2026-05-08 00:36 42.92791 -97.36878 32882 ft 499 kts 60°
2026-05-08 00:37 42.95679 -97.28344 32873 ft 499 kts 61°
2026-05-08 00:38 43.00009 -97.15490 32873 ft 499 kts 61°
2026-05-08 00:38 43.02892 -97.06894 32873 ft 498 kts 61°
2026-05-08 00:39 43.05770 -96.98292 32874 ft 498 kts 61°
2026-05-08 00:39 43.08627 -96.89723 32876 ft 498 kts 61°
2026-05-08 00:40 43.11474 -96.81157 32875 ft 498 kts 61°
2026-05-08 00:40 43.14334 -96.72524 32874 ft 499 kts 61°
2026-05-08 00:41 43.17178 -96.63913 32873 ft 499 kts 61°
2026-05-08 00:41 43.20028 -96.55255 32881 ft 499 kts 61°
2026-05-08 00:42 43.22873 -96.46584 32880 ft 500 kts 61°
2026-05-08 00:42 43.25699 -96.37943 32873 ft 500 kts 61°
2026-05-08 00:43 43.28529 -96.29274 32870 ft 500 kts 62°
2026-05-08 00:43 43.31342 -96.20612 32870 ft 500 kts 62°
2026-05-08 00:44 43.34158 -96.11917 32874 ft 500 kts 62°
2026-05-08 00:44 43.36970 -96.03209 32871 ft 500 kts 62°
2026-05-08 00:45 43.39780 -95.94474 32867 ft 501 kts 62°
2026-05-08 00:45 43.42562 -95.85799 32867 ft 501 kts 61°
2026-05-08 00:46 43.45374 -95.77010 32866 ft 501 kts 62°
2026-05-08 00:46 43.48159 -95.68268 32868 ft 501 kts 61°
2026-05-08 00:47 43.50941 -95.59502 32865 ft 502 kts 61°
2026-05-08 00:47 43.53723 -95.50716 32863 ft 502 kts 61°
2026-05-08 00:48 43.56501 -95.41911 32866 ft 502 kts 61°
2026-05-08 00:48 43.59262 -95.33131 32865 ft 503 kts 62°
2026-05-08 00:49 43.62036 -95.24276 32861 ft 504 kts 61°
2026-05-08 00:49 43.64800 -95.15426 32868 ft 505 kts 61°
2026-05-08 00:50 43.67564 -95.06547 32869 ft 505 kts 61°
2026-05-08 00:50 43.70314 -94.97676 32877 ft 505 kts 61°
2026-05-08 00:51 43.73072 -94.88757 32877 ft 505 kts 61°
2026-05-08 00:51 43.75812 -94.79863 32875 ft 505 kts 61°
2026-05-08 00:52 43.78549 -94.70945 32872 ft 505 kts 61°
2026-05-08 00:52 43.81265 -94.62071 32872 ft 505 kts 61°
2026-05-08 00:53 43.84000 -94.53095 32872 ft 505 kts 61°
2026-05-08 00:53 43.86712 -94.44170 32871 ft 506 kts 60°
2026-05-08 00:54 43.89417 -94.35242 32871 ft 505 kts 60°
2026-05-08 00:54 43.92129 -94.26256 32868 ft 507 kts 61°
2026-05-08 00:55 43.94833 -94.17264 32876 ft 507 kts 61°
2026-05-08 00:55 43.97533 -94.08249 32881 ft 507 kts 61°
2026-05-08 00:56 44.00217 -93.99248 32885 ft 508 kts 62°
2026-05-08 00:56 44.02733 -93.90103 32886 ft 509 kts 63°
2026-05-08 00:57 44.05185 -93.80918 32888 ft 509 kts 63°
2026-05-08 00:57 44.07632 -93.71770 32893 ft 509 kts 63°
2026-05-08 00:58 44.10091 -93.62592 32901 ft 509 kts 63°
2026-05-08 00:58 44.12548 -93.53392 32901 ft 508 kts 63°
2026-05-08 00:59 44.15010 -93.44150 32902 ft 509 kts 63°
2026-05-08 00:59 44.17448 -93.34956 32904 ft 509 kts 63°
2026-05-08 01:00 44.19883 -93.25743 32899 ft 510 kts 63°
2026-05-08 01:00 44.22313 -93.16511 32893 ft 510 kts 63°
2026-05-08 01:01 44.24725 -93.07303 32898 ft 509 kts 63°
2026-05-08 01:01 44.27154 -92.97997 32892 ft 509 kts 63°
2026-05-08 01:02 44.29554 -92.88766 32888 ft 509 kts 63°
2026-05-08 01:02 44.31943 -92.79549 32883 ft 509 kts 63°
2026-05-08 01:03 44.34346 -92.70245 32883 ft 509 kts 63°
2026-05-08 01:03 44.36727 -92.60977 32885 ft 509 kts 63°
2026-05-08 01:04 44.39103 -92.51701 32883 ft 510 kts 62°
2026-05-08 01:04 44.41468 -92.42426 32887 ft 510 kts 62°
2026-05-08 01:05 44.43843 -92.33072 32891 ft 510 kts 63°
2026-05-08 01:05 44.46198 -92.23767 32893 ft 510 kts 63°
2026-05-08 01:06 44.48537 -92.14479 32894 ft 510 kts 63°
2026-05-08 01:06 44.50894 -92.05090 32905 ft 511 kts 63°
2026-05-08 01:07 44.53226 -91.95755 32899 ft 511 kts 62°
2026-05-08 01:07 44.55562 -91.86388 32903 ft 512 kts 63°
2026-05-08 01:08 44.57894 -91.76968 32892 ft 510 kts 63°
2026-05-08 01:08 44.60206 -91.67605 32901 ft 510 kts 63°
2026-05-08 01:09 44.62515 -91.58229 32890 ft 511 kts 63°
2026-05-08 01:09 44.64807 -91.48864 32886 ft 510 kts 63°
2026-05-08 01:10 44.67099 -91.39452 32886 ft 509 kts 63°
2026-05-08 01:10 44.69378 -91.30074 32883 ft 509 kts 64°
2026-05-08 01:11 44.71642 -91.20718 32880 ft 510 kts 64°
2026-05-08 01:11 44.73909 -91.11303 32876 ft 509 kts 64°
2026-05-08 01:12 44.76158 -91.01920 32878 ft 507 kts 64°
2026-05-08 01:12 44.78395 -90.92556 32861 ft 508 kts 64°
2026-05-08 01:13 44.80626 -90.83174 32861 ft 508 kts 64°
2026-05-08 01:13 44.82864 -90.73727 32865 ft 510 kts 64°
2026-05-08 01:14 44.85076 -90.64336 32875 ft 508 kts 64°
2026-05-08 01:14 44.87286 -90.54925 32861 ft 508 kts 64°
2026-05-08 01:15 44.89495 -90.45489 32871 ft 508 kts 65°
2026-05-08 01:15 44.91686 -90.36070 32869 ft 508 kts 65°
2026-05-08 01:16 44.93885 -90.26591 32859 ft 509 kts 65°
2026-05-08 01:16 44.96062 -90.17149 32862 ft 508 kts 65°
2026-05-08 01:17 44.98228 -90.07732 32858 ft 507 kts 66°
2026-05-08 01:17 45.00468 -89.98305 32867 ft 506 kts 63°
2026-05-08 01:18 45.03011 -89.89082 32863 ft 504 kts 62°
2026-05-08 01:18 45.05577 -89.79921 32874 ft 504 kts 62°
2026-05-08 01:19 45.08143 -89.70700 32874 ft 504 kts 62°
2026-05-08 01:19 45.10693 -89.61478 32878 ft 504 kts 62°
2026-05-08 01:20 45.13221 -89.52289 32869 ft 504 kts 62°
2026-05-08 01:20 45.15747 -89.43072 32861 ft 505 kts 62°
2026-05-08 01:21 45.18263 -89.33849 32864 ft 504 kts 63°
2026-05-08 01:21 45.20773 -89.24622 32865 ft 504 kts 63°
2026-05-08 01:22 45.23285 -89.15346 32858 ft 504 kts 63°
2026-05-08 01:22 45.25780 -89.06093 32858 ft 503 kts 63°
2026-05-08 01:23 45.28259 -88.96870 32850 ft 504 kts 63°
2026-05-08 01:23 45.30753 -88.87557 32846 ft 504 kts 63°
2026-05-08 01:24 45.33232 -88.78265 32841 ft 506 kts 63°
2026-05-08 01:24 45.35712 -88.68939 33007 ft 512 kts 63°